Location: Hermaringen
(48.5952°N, 10.2585°E)
Time: 23:39:00
(UTC+00:00)

Altair - Pass Details

Date: 17 February 2026
Orbit: 1502 x 1682 km, 47.2° (Epoch: 9 March)

Event Time Altitude Azimuth Distance (km) Brightness Sun altitude
Rises 07:30:51 0° 273° (W) 4,671 9.5 9.4°
Reaches altitude 10° 07:33:50 10° 273° (W) 3,706 9.0 9.8°
Maximum altitude 07:43:14 82° 188° (S) 1,590 7.9 11.1°
Drops below altitude 10° 07:53:01 10° 102° (ESE) 3,843 11.1 12.5°
Sets 07:56:10 0° 102° (ESE) 4,852 11.4 12.9°
